Location: Bégole
(43.1574°N, 0.3291°E)
Time: 13:33:21
(UTC+00:00)

ATLAS 2AS CENTAUR R/B - Pass Details

Date: 28 January 2023
Orbit: 986 x 1226 km, 63.7° (Epoch: 31 January)

Event Time Altitude Azimuth Distance (km) Brightness Sun altitude
Rises 19:10:38 0° 325° (NW) 3,974 6.1 -22.9°
Reaches altitude 10° 19:13:27 10° 329° (NNW) 2,976 5.4 -23.4°
Maximum altitude 19:20:24 60° 48° (NE) 1,204 2.7 -24.7°
Enters shadow 19:21:31 53° 87° (E) 1,274 2.7 -24.9°
